This is the latest recevied weather packets stored in our database for station/object W0DXV. If no packets are shown the sender has not sent any weather packets the latest 10 day(s).
| Time | Temp. | Humidity | Pressure | Rain* | Wind** | Luminosity | Snow |
|---|---|---|---|---|---|---|---|
| 1777401693 | 16.67° C | 85% | 1015.5 hPa | 0 mm | - | 113 W/m² | - |
| 1777401391 | 16.67° C | 84% | 1015.5 hPa | 0 mm | - | 165 W/m² | - |
| 1777401086 | 16.67° C | 84% | 1015.8 hPa | 0 mm | - | 205 W/m² | - |
| 1777400782 | 16.11° C | 86% | 1015.8 hPa | 0 mm | - | 342 W/m² | - |
| 1777400479 | 16.11° C | 86% | 1015.8 hPa | 0 mm | - | 165 W/m² | - |
| 1777400175 | 15.56° C | 87% | 1015.6 hPa | 0 mm | - | 275 W/m² | - |
| 1777399871 | 15.56° C | 87% | 1015.6 hPa | 0 mm | - | 146 W/m² | - |
| 1777399569 | 16.11° C | 87% | 1016 hPa | 0 mm | - | 132 W/m² | - |
| 1777399266 | 16.11° C | 86% | 1015.9 hPa | 0 mm | - | 222 W/m² | - |
| 1777398964 | 15.56° C | 87% | 1016 hPa | 0 mm | - | 433 W/m² | - |
| 1777398660 | 15.56° C | 88% | 1016.2 hPa | 0 mm | - | 309 W/m² | - |
| 1777398357 | 15.56° C | 88% | 1016.3 hPa | 0 mm | - | 163 W/m² | - |
| 1777398054 | 15.56° C | 90% | 1016.3 hPa | 0 mm | - | 205 W/m² | - |
| 1777397750 | 15.56° C | 89% | 1016.4 hPa | 0 mm | - | 246 W/m² | - |
| 1777397446 | 15° C | 89% | 1016.4 hPa | 0 mm | - | 163 W/m² | - |
| 1777397142 | 15° C | 89% | 1015.7 hPa | 0 mm | - | 196 W/m² | - |
| 1777396839 | 15° C | 87% | 1016.5 hPa | 0 mm | - | 155 W/m² | - |
| 1777396535 | 15.56° C | 89% | 1016.4 hPa | 0 mm | - | 237 W/m² | - |
| 1777396232 | 15.56° C | 90% | 1016.5 hPa | 0 mm | - | 256 W/m² | - |
| 1777395928 | 15° C | 91% | 1016.4 hPa | 0 mm | - | 300 W/m² | - |
| 1777395618 | 15° C | 91% | 1016.1 hPa | 0 mm | - | 322 W/m² | - |
| 1777395315 | 14.44° C | 94% | 1016.7 hPa | 0 mm | - | 313 W/m² | - |
| 1777395013 | 13.89° C | 94% | 1017 hPa | 0 mm | - | 216 W/m² | - |
| 1777394709 | 13.89° C | 95% | 1017 hPa | 0 mm | - | 174 W/m² | - |
| 1777394405 | 13.89° C | 96% | 1017.1 hPa | 0 mm | - | 148 W/m² | - |
* Rain latest hour (hover to see other rain measurements)
** Current wind speed in m/s (hover to see current wind gust speed)